Location: ??????????
(54.8537°N, 38.8755°E)
Time: 21:50:09
(UTC+00:00)

Tiros 1 - Pass Details

Date: 22 September 2024
Orbit: 623 x 654 km, 48.4° (Epoch: 09 October)

Event Time Altitude Azimuth Distance (km) Brightness Sun altitude
Rises 15:55:24 0° 271° (W) 2,906 13.0 -5.6°
Reaches altitude 10° 15:58:32 10° 249° (WSW) 1,999 10.8 -6.0°
Maximum altitude 16:01:11 15° 214° (SSW) 1,678 9.6 -6.4°
Drops below altitude 10° 16:03:50 10° 178° (S) 2,003 9.6 -6.8°
Sets 16:07:00 0° 156° (SSE) 2,914 10.2 -7.2°
